World > North America > United States > Texas > Prairie Dell  

Prairie Dell, TX Hourly Weather Updates

Feedback E-mail the Weather

Quick Clicks

Prairie Dell, TX Weather Maps

°F °C°F °C
Prairie Dell Weather Map
UTC Time: 7/16/2024, 15:24
Your Time:

Prairie Dell, TX Regional Weather

Expires:202407161600;;135755
ASUS44 KFWD 161515
RWRTX 
NORTH TEXAS HOURLY WEATHER ROUNDUP
NATIONAL WEATHER SERVICE FORT WORTH TX
1000 AM CDT TUE JUL 16 2024

NOTE: "FAIR" INDICATES FEW OR NO CLOUDS BELOW 12,000 FEET WITH NO
SIGNIFICANT WEATHER AND/OR OBSTRUCTIONS TO VISIBILITY.


TXZ143>147-156>162-174-175-161600-
CENTRAL TEXAS
  
CITY           SKY/WX    TMP DP  RH WIND       PRES   REMARKS
WACO           FAIR      85  70  60 SW13      30.00S                  
WACO-MCGREGOR  FAIR      85  71  63 S8        30.01S HX  90           
HILLSBORO      FAIR      85  70  61 SW12      30.00S                  
CORSICANA      FAIR      85  73  67 S13       30.02R HX  91           
MEXIA          FAIR      84  73  68 MISG      30.02R HX  90           
HEARNE         PTSUNNY   84  75  73 SW10      30.03S HX  92           
CAMERON        PTSUNNY   84  74  71 SW12      30.01F HX  91           
TEMPLE         FAIR      85  72  65 SW16      30.02S HX  91           
KILLEEN        FAIR      85  71  62 S9        30.01S HX  90           
KILLEEN-SKYLRK FAIR      85  71  63 S15       30.02S HX  90           
FORT CAVAZOS   FAIR      84  72  65 SW10      30.00S HX  90           
GATESVILLE     FAIR      84  73  70 SW10      30.01S HX  91           
HAMILTON       FAIR      85  68  56 SW13      30.03S                  
$$


SKY/WX - Weather  TMP - Temperature  DP - Dew Point  RH - Humidity
WIND - Wind Direction/Speed PRES - Barometric Pressure VSB - Visibility
WCI - Wind Chill Index E13G22 Wind - East Wind 13 mph/Gusts of 22 mph

Trending Headlines

Trending Entertainment Headlines

Prairie Dell Radar Loop

Use the map search tool if you want to place a location marker on the radar map...

Prairie Dell Quick Facts

National Two Day Weather Forecast


E-mail the Prairie Dell Weather Forecast

Voice your opinion or tell us about page issues...